Flag for Honduras Weather past 2 weeks in Tegucigalpa, Honduras

Now
88 °F

Passing clouds.


Feels Like: 88 °F
Forecast: N/A
Wind: 9 mph from East

Location: Tegucigalpa Airport

Current Time: Aug 3, 2015 at 4:30:50 PM

Latest Report: Aug 3, 2015 at 3:00 PM


Visibility: N/A

Pressure: 29.98 "Hg (26.63 "Hg at 1054m altitude)

Humidity: 40%

Dew point: 61 °F

Location of TegucigalpaLocation

Historic Weather in Tegucigalpa — Graph

°F

Tegucigalpa temperature yesterday

Maximum temperature yesterday: 86 °F (at 2:00 PM)
Minimum temperature yesterday: 64 °F (at 3:00 AM)
Average temperature yesterday: 74 °F

Past Weeks' High & Low Weather Summary

 TemperatureHumidityPressure
High88 °F (Aug 3, 2:00 PM)100% (Jul 20, 3:00 AM)30.18 "Hg (Jul 20, 3:00 AM)
Low63 °F (Jul 20, 5:00 AM)38% (Aug 3, 1:00 PM)29.89 "Hg (Jul 23, 10:00 PM)
Average74 °F71%30.09 "Hg
* Reported Jul 19 3:00 PM — Aug 3 3:00 PM, Tegucigalpa, Weather by CustomWeather, © 2015

Note: Actual official high and low records may vary slightly from our data, if they occured in-between our weather recording intervals... More about our weather records

Advertising

Tegucigalpa weather history for previous 24 hours

 ConditionsComfort  
Time TempWeatherWind HumidityBarometerVisibility
3:00 PM
Mon, Aug 3
88 °FPassing clouds.9 mph40%29.98 "HgN/A
2:00 PM88 °FPassing clouds.7 mph38%30.01 "HgN/A
1:00 PM86 °FPassing clouds.9 mph38%30.04 "HgN/A
12:00 PM84 °FScattered clouds.7 mph45%30.04 "HgN/A
11:00 AM82 °FScattered clouds.9 mph51%30.04 "HgN/A
10:00 AM82 °FScattered clouds.9 mph51%30.04 "HgN/A
9:00 AM79 °FScattered clouds.7 mph70%30.04 "HgN/A
8:00 AM75 °FScattered clouds.7 mph74%30.04 "HgN/A
7:00 AM70 °FBroken clouds.3 mph94%30.04 "HgN/A
6:00 AM68 °FScattered clouds.3 mph94%30.04 "Hg5 mi
5:00 AM70 °FPassing clouds.3 mph88%30.04 "HgN/A
4:00 AM66 °FPassing clouds.No wind94%30.04 "HgN/A
3:00 AM68 °FPartly cloudy.No wind88%30.04 "HgN/A
2:00 AM68 °FPartly cloudy.No wind88%30.04 "HgN/A
1:00 AM66 °FPassing clouds.No wind88%30.04 "HgN/A
12:00 AM68 °FPassing clouds.2 mph88%30.07 "HgN/A
11:00 PM
Sun, Aug 2
68 °FPassing clouds.5 mph88%30.09 "HgN/A
10:00 PM70 °FPassing clouds.No wind78%30.09 "HgN/A
9:00 PM72 °FPassing clouds.2 mph73%30.07 "HgN/A
8:00 PM73 °FPassing clouds.2 mph69%30.04 "HgN/A
7:00 PM77 °FPassing clouds.3 mph69%30.01 "HgN/A
6:00 PM77 °FScattered showers. Broken clouds.6 mph65%30.01 "Hg5 mi
5:00 PM81 °FScattered showers. Partly sunny.5 mph54%29.98 "Hg5 mi
4:00 PM84 °FScattered clouds.5 mph51%29.98 "HgN/A
Weather by CustomWeather, © 2015

See weather overviewHow to use our weather pages